Location: Fort Wayne
(41.1310°N, 85.1290°W)
Time: 04:31:23
(UTC-04:00)

ISS - Visible Passes

Search period start: 28 September 2016 00:00
Search period end: 08 October 2016 00:00
Orbit: 400 x 410 km, 51.6° (Epoch: 28 September)

Date Brightness Start Highest point End Pass type
(mag) Time Alt. Az. Time Alt. Az. Time Alt. Az.
28 Sep -2.8 20:40:43 10° SSW 20:43:45 37° SE 20:44:06 35° ESE visible
29 Sep -1.7 19:49:25 10° S 19:51:50 19° SE 19:54:16 10° E visible
29 Sep -2.0 21:24:56 10° WSW 21:27:26 39° WNW 21:27:26 39° WNW visible
30 Sep -3.4 20:32:44 10° SW 20:35:58 86° NW 20:37:51 23° NE visible
30 Sep 0.3 22:10:25 10° WNW 22:10:32 11° WNW 22:10:32 11° WNW visible
01 Oct -1.5 21:17:45 10° W 21:20:32 26° NNW 21:20:48 25° NNW visible
02 Oct -2.1 20:25:13 10° W 20:28:17 39° NNW 20:30:56 13° NE visible
02 Oct 0.2 22:03:33 10° NW 22:03:36 10° NW 22:03:36 10° NW visible
03 Oct -1.0 21:10:47 10° WNW 21:13:04 17° NNW 21:13:38 17° N visible
04 Oct -1.2 20:18:03 10° WNW 20:20:42 23° NNW 20:23:22 10° NNE visible
05 Oct -0.8 21:03:49 10° NW 21:05:38 14° N 21:06:07 14° N visible
06 Oct -0.9 20:11:02 10° NW 20:13:11 16° NNW 20:15:19 10° NNE visible
07 Oct -0.8 20:56:32 10° NNW 20:58:11 13° N 20:58:25 13° N visible
